DW7628 Weather Reports


Display with metric or nautical units.
time (UTC)temp
F
wind
direction
speed
MPH
gust
MPH
rain 1hr
in
rain 24hr
in
rain mn
in
humidity
%
barometer
mb
20260901205307 77 20 0.0 0.0 0.00 0.00 0.00 54 1014.9
20260901204806 77 177 0.0 0.0 0.00 0.00 0.00 54 1015.0
20260901203807 77 120 0.0 0.0 0.00 0.00 0.00 53 1015.0
20260901203306 77 39 0.0 0.0 0.00 0.00 0.00 53 1014.9
20260901202807 77 157 0.0 0.0 0.00 0.00 0.00 52 1014.8
20260901202306 78 64 0.0 0.0 0.00 0.00 0.00 52 1014.8
20260901201807 78 236 0.0 0.0 0.00 0.00 0.00 52 1014.8
20260901201307 78 164 0.0 0.0 0.00 0.00 0.00 52 1014.9
20260901200806 78 161 0.0 0.0 0.00 0.00 0.00 51 1014.8
20260901200309 78 160 0.0 0.0 0.00 0.00 0.00 51 1014.8
20260901195806 79 216 0.0 0.0 0.00 0.00 0.00 50 1014.8
20260901195308 79 186 0.0 0.0 0.00 0.00 0.00 50 1014.7
20260901194807 79 155 0.0 0.0 0.00 0.00 0.00 50 1014.7
20260901193806 79 3 0.0 0.0 0.00 0.00 0.00 49 1014.5
20260901193307 79 38 0.0 0.0 0.00 0.00 0.00 48 1014.4
20260901192307 80 18 0.0 0.0 0.00 0.00 0.00 48 1014.2
20260901191806 80 32 0.0 0.0 0.00 0.00 0.00 48 1014.2
20260901191307 80 27 0.0 0.0 0.00 0.00 0.00 48 1014.2
20260901190307 80 33 0.0 0.0 0.00 0.00 0.00 48 1014.2
20260901185806 80 122 0.0 0.0 0.00 0.00 0.00 48 1014.1
20260901185308 87 25 0.0 0.0 0.00 0.00 0.00 37 1012.9
20260901164305 87 344 0.0 0.0 0.00 0.00 0.00 38 1012.9
20260901163805 88 153 0.0 0.0 0.00 0.00 0.00 40 1012.9
20260901163305 88 43 0.0 0.0 0.00 0.00 0.00 39 1012.8
20260901162805 88 42 0.0 0.0 0.00 0.00 0.00 38 1012.8
20260901162306 88 51 0.0 0.0 0.00 0.00 0.00 39 1012.8
20260901161806 89 39 0.0 0.0 0.00 0.00 0.00 37 1012.7
20260901161306 90 27 0.0 0.0 0.00 0.00 0.00 36 1012.7
20260901160805 90 107 0.0 0.0 0.00 0.00 0.00 35 1012.6
20260901160305 91 215 0.0 0.0 0.00 0.00 0.00 35 1012.6
20260901155306 92 174 0.0 0.0 0.00 0.00 0.00 33 1012.4
20260901154805 92 26 0.0 0.0 0.00 0.00 0.00 32 1012.4
20260901154305 92 240 0.0 0.0 0.00 0.00 0.00 31 1012.3
20260901153805 92 201 0.0 0.0 0.00 0.00 0.00 31 1012.3
20260901153305 93 15 0.0 0.0 0.00 0.00 0.00 30 1012.3
20260901152806 93 79 0.0 0.0 0.00 0.00 0.00 29 1012.3
20260901152306 93 91 0.0 0.0 0.00 0.00 0.00 29 1012.3
20260901151805 93 346 0.0 0.0 0.00 0.00 0.00 29 1012.2
20260901151305 93 350 0.0 0.0 0.00 0.00 0.00 29 1012.3
20260901150305 93 341 0.0 0.0 0.00 0.00 0.00 28 1012.2
20260901145805 93 197 0.0 0.0 0.00 0.00 0.00 27 1012.2
20260901145306 92 259 0.0 0.0 0.00 0.00 0.00 27 1012.3
20260901144805 93 98 0.0 0.0 0.00 0.00 0.00 26 1012.3
20260901144305 93 34 0.0 0.0 0.00 0.00 0.00 27 1012.2
20260901143805 94 3 0.0 0.0 0.00 0.00 0.00 28 1012.2
20260901143305 94 222 0.0 0.0 0.00 0.00 0.00 29 1012.2
20260901142805 94 197 0.0 0.0 0.00 0.00 0.00 29 1012.2
20260901142306 94 244 0.0 0.0 0.00 0.00 0.00 30 1012.1
20260901141805 94 212 0.0 0.0 0.00 0.00 0.00 31 1012.2
20260901140806 94 23 0.0 0.0 0.00 0.00 0.00 31 1012.1
20260901140305 94 178 0.0 0.0 0.00 0.00 0.00 32 1012.1
20260901135805 95 342 0.0 0.0 0.00 0.00 0.00 31 1012.0
20260901135305 95 180 0.0 0.0 0.00 0.00 0.00 32 1012.1
20260901134805 95 246 0.0 0.0 0.00 0.00 0.00 32 1012.1
20260901134305 94 89 0.0 0.0 0.00 0.00 0.00 33 1012.1
20260901132805 95 214 0.0 0.0 0.00 0.00 0.00 33 1012.2
20260901132307 95 284 0.0 0.0 0.00 0.00 0.00 33 1012.2
20260901131804 95 206 0.0 0.0 0.00 0.00 0.00 33 1012.2
20260901131305 95 54 0.0 0.0 0.00 0.00 0.00 32 1012.3
20260901125805 95 172 0.0 0.0 0.00 0.00 0.00 33 1012.6
20260901125308 95 324 0.0 0.0 0.00 0.00 0.00 33 1012.5
20260901124806 94 162 0.0 0.0 0.00 0.00 0.00 32 1012.7
20260901124306 94 262 0.0 0.0 0.00 0.00 0.00 32 1012.8
20260901123804 95 277 0.0 0.0 0.00 0.00 0.00 33 1012.8
20260901123306 95 262 0.0 0.0 0.00 0.00 0.00 32 1012.9
20260901121808 95 193 0.0 0.0 0.00 0.00 0.00 33 1013.1
20260901121304 95 164 0.0 0.0 0.00 0.00 0.00 32 1013.1
20260901120804 95 267 0.0 0.0 0.00 0.00 0.00 32 1013.1
20260901120305 95 217 0.0 0.0 0.00 0.00 0.00 33 1013.1
20260901115306 94 168 0.0 0.0 0.00 0.00 0.00 34 1013.3
20260901114805 94 244 0.0 0.0 0.00 0.00 0.00 33 1013.3
20260901113806 94 134 0.0 0.0 0.00 0.00 0.00 32 1013.4
20260901113304 94 222 0.0 0.0 0.00 0.00 0.00 33 1013.4
20260901112806 94 188 0.0 0.0 0.00 0.00 0.00 33 1013.4
20260901112306 93 267 0.0 0.0 0.00 0.00 0.00 32 1013.4
20260901111805 93 150 0.0 0.0 0.00 0.00 0.00 31 1013.4
20260901110305 92 3 0.0 0.0 0.00 0.00 0.00 31 1013.5
20260901105804 92 50 0.0 0.0 0.00 0.00 0.00 30 1013.4
20260901105306 92 157 0.0 0.0 0.00 0.00 0.00 31 1013.5
20260901104805 92 111 0.0 0.0 0.00 0.00 0.00 31 1013.5
20260901104305 92 120 0.0 0.0 0.00 0.00 0.00 28 1013.6
20260901103806 92 201 0.0 0.0 0.00 0.00 0.00 31 1013.6
20260901103307 91 102 0.0 0.0 0.00 0.00 0.00 32 1013.6
20260901102805 90 130 0.0 0.0 0.00 0.00 0.00 33 1013.6
20260901102306 91 37 0.0 0.0 0.00 0.00 0.00 34 1013.7
20260901101805 91 84 0.0 0.0 0.00 0.00 0.00 33 1013.6
20260901100805 90 96 0.0 0.0 0.00 0.00 0.00 35 1013.6
20260901100307 89 153 0.0 0.0 0.00 0.00 0.00 35 1013.6
20260901095805 89 105 0.0 0.0 0.00 0.00 0.00 34 1013.6
20260901095308 89 126 0.0 0.0 0.00 0.00 0.00 35 1013.6
20260901094804 89 133 0.0 0.0 0.00 0.00 0.00 35 1013.6
20260901094304 88 223 0.0 0.0 0.00 0.00 0.00 36 1013.7
20260901093804 88 85 0.0 0.0 0.00 0.00 0.00 36 1013.8
20260901093304 88 11 0.0 0.0 0.00 0.00 0.00 37 1013.8
20260901092805 88 213 0.0 0.0 0.00 0.00 0.00 38 1013.6
20260901091805 86 30 0.0 0.0 0.00 0.00 0.00 40 1013.7
20260901091306 86 12 0.0 0.0 0.00 0.00 0.00 41 1013.6
20260901090805 86 25 0.0 0.0 0.00 0.00 0.00 41 1013.6
20260901090305 87 15 0.0 0.0 0.00 0.00 0.00 44 1013.6
20260901085805 86 57 0.0 0.0 0.00 0.00 0.00 45 1013.5
20260901085306 86 133 0.0 0.0 0.00 0.00 0.00 46 1013.6
20260901084304 86 129 0.0 0.0 0.00 0.00 0.00 49 1013.6
20260901083805 85 155 0.0 0.0 0.00 0.00 0.00 50 1013.6
20260901083306 84 156 0.0 0.0 0.00 0.00 0.00 51 1013.6
20260901081304 83 23 0.0 0.0 0.00 0.00 0.00 54 1013.4
20260901080805 83 101 0.0 0.0 0.00 0.00 0.00 54 1013.5
20260901074805 82 15 0.0 0.0 0.00 0.00 0.00 56 1013.2
20260901074305 81 54 0.0 0.0 0.00 0.00 0.00 57 1013.1
20260901073304 81 109 0.0 0.0 0.00 0.00 0.00 59 1012.9
20260901071304 81 56 0.0 0.0 0.00 0.00 0.00 61 1013.0
20260901070806 80 80 0.0 0.0 0.00 0.00 0.00 61 1012.9
20260901070304 80 53 0.0 0.0 0.00 0.00 0.00 61 1013.0
20260901065805 80 109 0.0 0.0 0.00 0.00 0.00 59 1012.9
20260901065305 80 13 0.0 0.0 0.00 0.00 0.00 60 1012.8
20260901064804 80 81 0.0 0.0 0.00 0.00 0.00 61 1012.7
20260901064305 79 125 0.0 0.0 0.00 0.00 0.00 64 1012.6
20260901063804 79 138 0.0 0.0 0.00 0.00 0.00 64 1012.6
20260901063304 79 173 0.0 0.0 0.00 0.00 0.00 64 1012.5
20260901062804 78 104 0.0 0.0 0.00 0.00 0.00 64 1012.5
20260901062309 78 118 0.0 0.0 0.00 0.00 0.00 64 1012.5
20260901061805 78 233 0.0 0.0 0.00 0.00 0.00 63 1012.4
20260901061305 77 169 0.0 0.0 0.00 0.00 0.00 63 1012.5
20260901060804 77 313 0.0 0.0 0.00 0.00 0.00 63 1012.5
20260901055804 75 242 0.0 0.0 0.00 0.00 0.00 66 1012.5
20260901055306 75 275 0.0 0.0 0.00 0.00 0.00 67 1012.4
20260901054805 74 13 0.0 0.0 0.00 0.00 0.00 70 1012.3
20260901054304 73 235 0.0 0.0 0.00 0.00 0.00 71 1012.2
20260901053805 73 62 0.0 0.0 0.00 0.00 0.00 71 1012.1
20260901053304 73 1 0.0 0.0 0.00 0.00 0.00 72 1012.2
20260901052804 73 116 0.0 0.0 0.00 0.00 0.00 73 1012.1
20260901052307 73 220 0.0 0.0 0.00 0.00 0.00 73 1012.2
20260901051804 73 60 0.0 0.0 0.00 0.00 0.00 73 1012.1
20260901051304 73 55 0.0 0.0 0.00 0.00 0.00 74 1012.1
20260901050304 73 20 0.0 0.0 0.00 0.00 0.00 74 1012.2
20260901045804 72 34 0.0 0.0 0.00 0.00 0.00 74 1012.1
20260901045306 72 16 0.0 0.0 0.00 0.00 0.00 75 1012.0
20260901044804 72 129 0.0 0.0 0.00 0.00 0.00 75 1012.1
20260901044304 72 81 0.0 0.0 0.00 0.00 0.00 75 1012.1
20260901043804 72 35 0.0 0.0 0.00 0.00 0.00 74 1012.0
20260901043304 72 15 0.0 0.0 0.00 0.00 0.00 74 1012.0
20260901042804 72 30 0.0 0.0 0.00 0.00 0.00 76 1011.9
20260901042306 72 28 0.0 0.0 0.00 0.00 0.00 77 1011.9
20260901041304 72 25 0.0 0.0 0.00 0.00 0.00 76 1011.8
20260901040804 72 17 0.0 0.0 0.00 0.00 0.00 76 1011.7
20260901040304 72 17 0.0 0.0 0.00 0.00 0.00 76 1011.8
20260901035804 72 46 0.0 0.0 0.00 0.00 0.00 76 1011.8
20260901035305 72 39 0.0 0.0 0.00 0.00 0.00 75 1011.8
20260901034804 72 36 0.0 0.0 0.00 0.00 0.00 75 1011.8
20260901034304 72 44 0.0 0.0 0.00 0.00 0.00 75 1011.7
20260901033804 72 35 0.0 0.0 0.00 0.00 0.00 75 1011.8
20260901033304 72 124 0.0 0.0 0.00 0.00 0.00 75 1011.7
20260901032804 72 56 0.0 0.0 0.00 0.00 0.00 74 1011.7
20260901032306 72 8 0.0 0.0 0.00 0.00 0.00 74 1011.8
20260901031805 72 37 0.0 0.0 0.00 0.00 0.00 74 1011.7
20260901031304 72 124 0.0 0.0 0.00 0.00 0.00 74 1011.7
20260901030804 72 129 0.0 0.0 0.00 0.00 0.00 74 1011.6
20260901030304 72 209 0.0 0.0 0.00 0.00 0.00 74 1011.6
20260901025804 72 181 0.0 0.0 0.00 0.00 0.00 73 1011.6
20260901025306 72 111 0.0 0.0 0.00 0.00 0.00 73 1011.6
20260901024804 72 148 0.0 0.0 0.00 0.00 0.00 73 1011.5
20260901024304 72 241 0.0 0.0 0.00 0.00 0.00 72 1011.5
20260901023804 72 109 0.0 0.0 0.00 0.00 0.00 72 1011.5
20260901023304 72 10 0.0 0.0 0.00 0.00 0.00 71 1011.6
20260901022306 72 14 0.0 0.0 0.00 0.00 0.00 71 1011.8
20260901021804 73 22 0.0 0.0 0.00 0.00 0.00 70 1011.9
20260901021304 72 44 0.0 0.0 0.00 0.00 0.00 71 1011.8
20260901020804 72 136 0.0 0.0 0.00 0.00 0.00 70 1011.7
20260901020304 72 354 0.0 0.0 0.00 0.00 0.00 72 1011.8
20260901015804 72 49 0.0 0.0 0.00 0.00 0.00 71 1011.8
20260901015305 73 28 0.0 0.0 0.00 0.00 0.00 71 1011.7
20260901014803 73 9 0.0 0.0 0.00 0.00 0.00 72 1011.8
20260901014304 73 51 0.0 0.0 0.00 0.00 0.00 72 1011.8
20260901013804 73 41 0.0 0.0 0.00 0.00 0.00 72 1011.6
20260901013304 72 19 0.0 0.0 0.00 0.00 0.00 74 1011.6
20260901012804 72 35 0.0 0.0 0.00 0.00 0.00 76 1011.8
20260901012306 72 28 0.0 0.0 0.00 0.00 0.00 77 1011.9
20260901011304 72 24 0.0 0.0 0.00 0.00 0.00 78 1012.1
20260901010804 72 357 0.0 0.0 0.00 0.00 0.00 78 1012.2
20260901010304 72 24 0.0 0.0 0.00 0.00 0.00 78 1012.2
20260901005806 72 22 0.0 0.0 0.00 0.00 0.00 78 1012.2
20260901005307 72 19 0.0 0.0 0.00 0.00 0.00 78 1012.1
20260901004806 72 39 0.0 0.0 0.00 0.00 0.00 77 1012.2
20260901003306 72 32 0.0 0.0 0.00 0.00 0.00 77 1012.2
20260901002807 72 26 0.0 0.0 0.00 0.00 0.00 77 1012.3
20260901002306 72 68 0.0 0.0 0.00 0.00 0.00 77 1012.4
20260901001806 72 287 0.0 0.0 0.00 0.00 0.00 76 1012.4
20260901001306 73 27 0.0 0.0 0.00 0.00 0.00 76 1012.4
20260901000806 73 66 0.0 0.0 0.00 0.00 0.00 75 1012.4
20260901000306 73 29 0.0 0.0 0.00 0.00 0.00 75 1012.3
20260831235806 73 31 0.0 0.0 0.00 0.00 0.00 75 1012.3
20260831234806 73 8 0.0 0.0 0.00 0.00 0.00 74 1012.4
20260831234306 73 37 0.0 0.0 0.00 0.00 0.00 75 1012.5
20260831233806 73 47 0.0 0.0 0.00 0.00 0.00 75 1012.5
20260831232807 73 9 0.0 0.0 0.00 0.00 0.00 74 1012.7
20260831232306 74 22 0.0 0.0 0.00 0.00 0.00 74 1012.6
20260831231806 74 12 0.0 0.0 0.00 0.00 0.00 73 1012.7
20260831230806 74 1 0.0 0.0 0.00 0.00 0.00 70 1012.7
20260831230306 74 10 0.0 0.0 0.00 0.00 0.00 70 1012.7
20260831225810 74 27 0.0 0.0 0.00 0.00 0.00 69 1012.8
20260831225307 75 142 0.0 0.0 0.00 0.00 0.00 68 1012.9
20260831224807 75 19 0.0 0.0 0.00 0.00 0.00 67 1012.9
20260831224306 75 58 0.0 0.0 0.00 0.00 0.00 67 1012.9
20260831223805 74 341 0.0 0.0 0.00 0.00 0.00 66 1012.9
20260831223306 74 225 0.0 0.0 0.00 0.00 0.00 67 1012.9
20260831222806 74 225 0.0 0.0 0.00 0.00 0.00 68 1012.9
20260831222307 74 220 0.0 0.0 0.00 0.00 0.00 68 1012.9
20260831221806 75 118 0.0 0.0 0.00 0.00 0.00 68 1012.5
20260831221306 75 65 0.0 0.0 0.00 0.00 0.00 68 1012.3
20260831220306 75 58 0.0 0.0 0.00 0.00 0.00 67 1012.2
20260831215807 75 70 0.0 0.0 0.00 0.00 0.00 67 1012.3
20260831215306 75 22 0.0 0.0 0.00 0.00 0.00 67 1012.3
20260831214307 75 210 0.0 0.0 0.00 0.00 0.00 69 1012.2
20260831212806 76 171 0.0 0.0 0.00 0.00 0.00 69 1012.2
20260831212306 76 173 0.0 0.0 0.00 0.00 0.00 69 1012.2
20260831211806 76 186 0.0 0.0 0.00 0.00 0.00 68 1012.2
20260831211305 76 191 0.0 0.0 0.00 0.00 0.00 68 1012.2
20260831210806 76 220 0.0 0.0 0.00 0.00 0.00 67 1012.2
20260831210306 76 221 0.0 0.0 0.00 0.00 0.00 68 1012.3